This is the latest recevied weather packets stored in our database for station/object K4DNM. If no packets are shown the sender has not sent any weather packets the latest 10 day(s).
| Time | Temp. | Humidity | Pressure | Rain* | Wind** | Luminosity | Snow |
|---|---|---|---|---|---|---|---|
| 1778111029 | 25° C | 62% | 1010.5 hPa | 0 mm | - | 7 W/m² | - |
| 1778110789 | 25° C | 62% | 1010.5 hPa | 0 mm | - | 7 W/m² | - |
| 1778110491 | 25° C | 61% | 1010.4 hPa | 0 mm | - | 10 W/m² | - |
| 1778110128 | 25° C | 63% | 1010.4 hPa | 0 mm | - | 13 W/m² | - |
| 1778109887 | 25° C | 62% | 1010.4 hPa | 0 mm | - | 15 W/m² | - |
| 1778109527 | 25° C | 63% | 1010.3 hPa | 0 mm | - | 16 W/m² | - |
| 1778109226 | 25.56° C | 62% | 1010.3 hPa | 0 mm | - | 17 W/m² | - |
| 1778108625 | 25.56° C | 61% | 1010.4 hPa | 0 mm | - | 31 W/m² | - |
| 1778108326 | 25.56° C | 62% | 1010.3 hPa | 0 mm | - | 37 W/m² | - |
| 1778108023 | 25.56° C | 61% | 1010.3 hPa | 0 mm | - | 32 W/m² | - |
| 1778107721 | 25.56° C | 60% | 1010.3 hPa | 0 mm | - | 26 W/m² | - |
| 1778107420 | 25.56° C | 60% | 1010.2 hPa | 0 mm | - | 27 W/m² | - |
| 1778107121 | 25.56° C | 59% | 1010.2 hPa | 0 mm | - | 36 W/m² | - |
| 1778106819 | 26.11° C | 59% | 1010 hPa | 0 mm | - | 46 W/m² | - |
| 1778106520 | 26.11° C | 59% | 1010.1 hPa | 0 mm | - | 56 W/m² | - |
| 1778106277 | 26.11° C | 59% | 1010 hPa | 0 mm | - | 63 W/m² | - |
| 1778105917 | 26.11° C | 59% | 1010 hPa | 0 mm | - | 54 W/m² | - |
| 1778105618 | 26.11° C | 58% | 1009.9 hPa | 0 mm | - | 48 W/m² | - |
| 1778105318 | 26.11° C | 59% | 1009.9 hPa | 0 mm | - | 51 W/m² | - |
| 1778105018 | 26.11° C | 58% | 1010.1 hPa | 0 mm | - | 63 W/m² | - |
| 1778104718 | 26.11° C | 59% | 1010.2 hPa | 0 mm | - | 81 W/m² | - |
| 1778104418 | 26.11° C | 59% | 1010.3 hPa | 0 mm | - | 111 W/m² | - |
| 1778104115 | 26.11° C | 59% | 1010.3 hPa | 0 mm | - | 128 W/m² | - |
| 1778103818 | 26.11° C | 59% | 1010.4 hPa | 0 mm | - | 154 W/m² | - |
| 1778103515 | 26.11° C | 60% | 1010.4 hPa | 0 mm | - | 129 W/m² | - |
* Rain latest hour (hover to see other rain measurements)
** Current wind speed in m/s (hover to see current wind gust speed)